| time (UTC) | temp F | wind direction | speed MPH | gust MPH | rain 1hr in | rain 24hr in | rain mn in | humidity % | barometer mb |
| 20260503021147 | 44 | 158 | 0.0 | 0.0 | 0.00 | 0.02 | 0.00 | 82 | 1020.0 |
| 20260503020647 | 44 | 158 | 0.0 | 0.0 | 0.00 | 0.02 | 0.00 | 82 | 1020.1 |
| 20260503020147 | 44 | 158 | 0.0 | 0.0 | 0.00 | 0.00 | 0.00 | 81 | 1020.1 |
| 20260503015647 | 44 | 158 | 0.0 | 0.0 | 0.00 | 0.02 | 0.00 | 82 | 1020.2 |
| 20260503015147 | 44 | 158 | 0.0 | 0.0 | 0.00 | 0.02 | 0.00 | 81 | 1020.1 |
| 20260503014647 | 44 | 158 | 0.0 | 0.0 | 0.00 | 0.02 | 0.00 | 81 | 1020.1 |
| 20260503014147 | 44 | 158 | 0.0 | 0.0 | 0.00 | 0.02 | 0.00 | 80 | 1020.1 |
| 20260503013647 | 45 | 158 | 0.0 | 0.0 | 0.00 | 0.02 | 0.00 | 80 | 1020.1 |
| 20260503013147 | 45 | 158 | 0.0 | 0.0 | 0.00 | 0.02 | 0.00 | 80 | 1020.3 |
| 20260503012647 | 45 | 158 | 0.0 | 0.0 | 0.00 | 0.02 | 0.00 | 81 | 1020.3 |
| 20260503012147 | 45 | 225 | 0.0 | 0.0 | 0.00 | 0.02 | 0.00 | 80 | 1020.3 |
| 20260503011647 | 45 | 225 | 0.0 | 0.0 | 0.00 | 0.02 | 0.00 | 80 | 1020.3 |
| 20260503011147 | 45 | 225 | 0.0 | 0.0 | 0.00 | 0.02 | 0.00 | 80 | 1020.3 |
| 20260503010647 | 45 | 360 | 0.0 | 0.0 | 0.00 | 0.02 | 0.00 | 80 | 1020.4 |
| 20260503010147 | 46 | 360 | 0.0 | 0.0 | 0.00 | 0.00 | 0.00 | 73 | 1020.3 |
| 20260503005647 | 46 | 360 | 0.0 | 1.0 | 0.00 | 0.00 | 0.00 | 73 | 1020.3 |
| 20260503005147 | 46 | 180 | 0.0 | 0.0 | 0.00 | 0.00 | 0.00 | 73 | 1020.2 |
| 20260503004647 | 46 | 45 | 0.0 | 0.0 | 0.00 | 0.00 | 0.00 | 73 | 1020.4 |
| 20260503004147 | 46 | 45 | 0.0 | 0.0 | 0.00 | 0.00 | 0.00 | 72 | 1020.4 |
| 20260503003647 | 46 | 45 | 0.0 | 2.0 | 0.00 | 0.00 | 0.00 | 72 | 1020.4 |
| 20260503003147 | 46 | 45 | 0.0 | 0.0 | 0.00 | 0.00 | 0.00 | 72 | 1020.5 |
| 20260503002647 | 46 | 45 | 0.0 | 0.0 | 0.00 | 0.00 | 0.00 | 71 | 1020.5 |
| 20260503002147 | 46 | 45 | 0.0 | 0.0 | 0.00 | 0.00 | 0.00 | 71 | 1020.4 |
| 20260503001648 | 47 | 45 | 0.0 | 0.0 | 0.00 | 0.00 | 0.00 | 71 | 1020.7 |
| 20260503001147 | 47 | 180 | 0.0 | 0.0 | 0.00 | 0.00 | 0.00 | 71 | 1020.6 |
| 20260503000647 | 47 | 180 | 0.0 | 0.0 | 0.00 | 0.00 | 0.00 | 71 | 1020.6 |
| 20260503000147 | 47 | 180 | 0.0 | 0.0 | 0.00 | 0.00 | 0.00 | 71 | 1020.6 |
| 20260502235647 | 48 | 225 | 0.0 | 0.0 | 0.00 | 0.00 | 0.00 | 71 | 1020.6 |
| 20260502235147 | 48 | 45 | 0.0 | 1.0 | 0.00 | 0.00 | 0.00 | 71 | 1020.7 |
| 20260502234647 | 48 | 45 | 0.0 | 1.0 | 0.00 | 0.00 | 0.00 | 71 | 1020.7 |
| 20260502234147 | 48 | 180 | 0.0 | 0.0 | 0.00 | 0.00 | 0.00 | 71 | 1020.8 |
| 20260502233647 | 49 | 45 | 0.0 | 2.0 | 0.00 | 0.00 | 0.00 | 72 | 1020.8 |
| 20260502233147 | 49 | 45 | 0.0 | 2.0 | 0.00 | 0.00 | 0.00 | 72 | 1020.8 |
| 20260502232649 | 48 | 225 | 1.0 | 2.0 | 0.00 | 0.00 | 0.00 | 71 | 1020.9 |
| 20260502232146 | 48 | 158 | 0.0 | 0.0 | 0.00 | 0.00 | 0.00 | 71 | 1020.9 |
| 20260502231647 | 48 | 158 | 0.0 | 0.0 | 0.00 | 0.00 | 0.00 | 71 | 1020.9 |
| 20260502231147 | 48 | 158 | 0.0 | 0.0 | 0.00 | 0.00 | 0.00 | 71 | 1020.9 |
| 20260502230647 | 48 | 158 | 0.0 | 0.0 | 0.00 | 0.00 | 0.00 | 70 | 1021.0 |
| 20260502230147 | 48 | 158 | 0.0 | 0.0 | 0.00 | 0.00 | 0.00 | 70 | 1021.1 |
| 20260502225647 | 49 | 158 | 0.0 | 0.0 | 0.00 | 0.00 | 0.00 | 70 | 1021.1 |
| 20260502225147 | 49 | 158 | 0.0 | 0.0 | 0.00 | 0.00 | 0.00 | 70 | 1021.1 |
| 20260502224647 | 49 | 158 | 0.0 | 0.0 | 0.00 | 0.00 | 0.00 | 68 | 1021.2 |
| 20260502224146 | 49 | 158 | 0.0 | 0.0 | 0.00 | 0.00 | 0.00 | 68 | 1021.2 |
| 20260502223647 | 49 | 158 | 0.0 | 0.0 | 0.00 | 0.00 | 0.00 | 68 | 1021.1 |
| 20260502223147 | 50 | 158 | 0.0 | 1.0 | 0.00 | 0.00 | 0.00 | 68 | 1021.1 |
| 20260502222647 | 50 | 158 | 0.0 | 1.0 | 0.00 | 0.00 | 0.00 | 68 | 1021.1 |
| 20260502222147 | 50 | 225 | 0.0 | 1.0 | 0.00 | 0.00 | 0.00 | 68 | 1021.2 |
| 20260502221647 | 50 | 225 | 0.0 | 0.0 | 0.00 | 0.00 | 0.00 | 67 | 1021.3 |
| 20260502221147 | 51 | 225 | 0.0 | 2.0 | 0.00 | 0.00 | 0.00 | 67 | 1021.2 |
| 20260502220648 | 51 | 225 | 1.0 | 2.0 | 0.00 | 0.00 | 0.00 | 67 | 1021.3 |
| 20260502220147 | 51 | 225 | 1.0 | 2.0 | 0.00 | 0.00 | 0.00 | 66 | 1021.2 |
| 20260502215647 | 51 | 225 | 0.0 | 1.0 | 0.00 | 0.02 | 0.00 | 66 | 1021.1 |
| 20260502215147 | 51 | 225 | 0.0 | 2.0 | 0.00 | 0.02 | 0.00 | 65 | 1021.2 |
| 20260502214647 | 51 | 225 | 0.0 | 0.0 | 0.00 | 0.02 | 0.00 | 65 | 1021.1 |
| 20260502214146 | 52 | 225 | 0.0 | 0.0 | 0.00 | 0.02 | 0.00 | 65 | 1021.1 |
| 20260502213646 | 52 | 180 | 0.0 | 1.0 | 0.00 | 0.02 | 0.00 | 65 | 1021.2 |
| 20260502213147 | 52 | 225 | 1.0 | 2.0 | 0.00 | 0.02 | 0.00 | 65 | 1021.3 |
| 20260502212646 | 52 | 135 | 0.0 | 0.0 | 0.00 | 0.02 | 0.00 | 65 | 1021.2 |
| 20260502212146 | 52 | 225 | 1.0 | 2.0 | 0.00 | 0.02 | 0.00 | 65 | 1021.2 |
| 20260502211647 | 53 | 225 | 1.0 | 2.0 | 0.00 | 0.02 | 0.00 | 65 | 1021.0 |
| 20260502211147 | 52 | 270 | 0.0 | 2.0 | 0.00 | 0.02 | 0.00 | 65 | 1021.2 |
| 20260502210647 | 52 | 225 | 1.0 | 2.0 | 0.00 | 0.02 | 0.00 | 64 | 1021.2 |
| 20260502210146 | 53 | 270 | 0.0 | 1.0 | 0.00 | 0.00 | 0.00 | 64 | 1021.2 |
| 20260502205647 | 52 | 225 | 1.0 | 2.0 | 0.00 | 0.02 | 0.00 | 63 | 1021.2 |
| 20260502205146 | 53 | 225 | 0.0 | 0.0 | 0.00 | 0.02 | 0.00 | 62 | 1021.3 |
| 20260502204647 | 53 | 270 | 0.0 | 0.0 | 0.00 | 0.02 | 0.00 | 62 | 1021.4 |
| 20260502204146 | 53 | 180 | 0.0 | 0.0 | 0.00 | 0.02 | 0.00 | 62 | 1021.5 |
| 20260502203647 | 53 | 180 | 0.0 | 0.0 | 0.00 | 0.02 | 0.00 | 62 | 1021.5 |
| 20260502203146 | 54 | 225 | 0.0 | 2.0 | 0.00 | 0.02 | 0.00 | 62 | 1021.4 |
| 20260502202647 | 54 | 270 | 0.0 | 0.0 | 0.00 | 0.02 | 0.00 | 60 | 1021.5 |
| 20260502202147 | 54 | 270 | 0.0 | 0.0 | 0.00 | 0.02 | 0.00 | 60 | 1021.5 |
| 20260502201646 | 54 | 315 | 0.0 | 0.0 | 0.00 | 0.02 | 0.00 | 60 | 1021.6 |
| 20260502201147 | 55 | 315 | 0.0 | 1.0 | 0.00 | 0.02 | 0.00 | 56 | 1021.7 |
| 20260502200647 | 55 | 225 | 1.0 | 2.0 | 0.00 | 0.02 | 0.00 | 56 | 1021.6 |
| 20260502200146 | 55 | 135 | 0.0 | 2.0 | 0.00 | 0.00 | 0.00 | 56 | 1021.7 |
| 20260502195646 | 55 | 270 | 0.0 | 2.0 | 0.00 | 0.02 | 0.00 | 56 | 1021.5 |
| 20260502195146 | 56 | 360 | 1.0 | 2.0 | 0.00 | 0.02 | 0.00 | 55 | 1021.4 |
| 20260502194646 | 56 | 270 | 1.0 | 4.0 | 0.00 | 0.02 | 0.00 | 56 | 1021.4 |
| 20260502194146 | 55 | 315 | 0.0 | 1.0 | 0.00 | 0.02 | 0.00 | 55 | 1021.4 |
| 20260502193646 | 55 | 315 | 1.0 | 2.0 | 0.00 | 0.02 | 0.00 | 54 | 1021.3 |
| 20260502193146 | 56 | 315 | 0.0 | 0.0 | 0.00 | 0.02 | 0.00 | 53 | 1021.4 |
| 20260502192646 | 56 | 315 | 1.0 | 2.0 | 0.00 | 0.02 | 0.00 | 52 | 1021.3 |
| 20260502192146 | 56 | 315 | 0.0 | 0.0 | 0.00 | 0.02 | 0.00 | 52 | 1021.2 |
| 20260502191646 | 57 | 315 | 0.0 | 2.0 | 0.00 | 0.02 | 0.00 | 52 | 1021.1 |
| 20260502191146 | 57 | 315 | 0.0 | 0.0 | 0.00 | 0.02 | 0.00 | 50 | 1021.2 |
| 20260502190646 | 58 | 315 | 0.0 | 0.0 | 0.00 | 0.02 | 0.00 | 50 | 1021.3 |
| 20260502190146 | 58 | 315 | 0.0 | 2.0 | 0.00 | 0.00 | 0.00 | 50 | 1021.1 |
| 20260502185646 | 59 | 270 | 0.0 | 0.0 | 0.00 | 0.02 | 0.00 | 50 | 1021.1 |
| 20260502185146 | 59 | 270 | 0.0 | 0.0 | 0.00 | 0.02 | 0.00 | 49 | 1020.9 |
| 20260502184646 | 60 | 270 | 0.0 | 0.0 | 0.00 | 0.02 | 0.00 | 47 | 1021.0 |
| 20260502184146 | 61 | 225 | 0.0 | 2.0 | 0.00 | 0.02 | 0.00 | 46 | 1020.8 |
| 20260502183646 | 62 | 225 | 0.0 | 0.0 | 0.00 | 0.02 | 0.00 | 46 | 1020.9 |
| 20260502183146 | 62 | 225 | 0.0 | 2.0 | 0.00 | 0.02 | 0.00 | 45 | 1020.8 |
| 20260502182647 | 63 | 225 | 1.0 | 2.0 | 0.00 | 0.02 | 0.00 | 44 | 1020.7 |
| 20260502182146 | 64 | 270 | 0.0 | 2.0 | 0.00 | 0.02 | 0.00 | 40 | 1020.7 |
| 20260502181646 | 65 | 225 | 1.0 | 2.0 | 0.00 | 0.02 | 0.00 | 40 | 1020.6 |
| 20260502181146 | 65 | 225 | 1.0 | 2.0 | 0.00 | 0.02 | 0.00 | 38 | 1020.7 |
| 20260502180646 | 66 | 225 | 1.0 | 3.0 | 0.00 | 0.02 | 0.00 | 37 | 1020.7 |
| 20260502180146 | 66 | 225 | 1.0 | 3.0 | 0.00 | 0.00 | 0.00 | 36 | 1020.6 |
| 20260502170146 | 71 | 180 | 2.0 | 4.0 | 0.00 | 0.00 | 0.00 | 30 | 1020.6 |
| 20260502164146 | 73 | 248 | 1.0 | 4.0 | 0.00 | 0.02 | 0.00 | 25 | 1020.8 |
| 20260502163646 | 74 | 135 | 1.0 | 4.0 | 0.00 | 0.02 | 0.00 | 25 | 1020.8 |
| 20260502163146 | 74 | 225 | 1.0 | 4.0 | 0.00 | 0.02 | 0.00 | 24 | 1021.0 |
| 20260502162646 | 74 | 225 | 1.0 | 4.0 | 0.00 | 0.02 | 0.00 | 24 | 1020.9 |
| 20260502162146 | 76 | 158 | 1.0 | 3.0 | 0.00 | 0.02 | 0.00 | 24 | 1020.9 |
| 20260502161646 | 77 | 135 | 2.0 | 5.0 | 0.00 | 0.02 | 0.00 | 24 | 1021.0 |
| 20260502161146 | 78 | 135 | 1.0 | 4.0 | 0.00 | 0.02 | 0.00 | 23 | 1021.0 |
| 20260502160646 | 77 | 135 | 2.0 | 8.0 | 0.00 | 0.02 | 0.00 | 23 | 1021.1 |
| 20260502160146 | 78 | 90 | 3.0 | 8.0 | 0.00 | 0.00 | 0.00 | 22 | 1021.2 |
| 20260502152146 | 78 | 180 | 2.0 | 5.0 | 0.00 | 0.02 | 0.00 | 22 | 1021.6 |
| 20260502151646 | 79 | 180 | 3.0 | 9.0 | 0.00 | 0.02 | 0.00 | 22 | 1021.6 |
| 20260502151146 | 78 | 180 | 2.0 | 6.0 | 0.00 | 0.02 | 0.00 | 22 | 1021.6 |
| 20260502150646 | 79 | 113 | 2.0 | 5.0 | 0.00 | 0.02 | 0.00 | 22 | 1021.7 |
| 20260502150146 | 79 | 135 | 2.0 | 6.0 | 0.00 | 0.00 | 0.00 | 21 | 1021.8 |
| 20260502130645 | 78 | 135 | 2.0 | 6.0 | 0.00 | 0.02 | 0.00 | 22 | 1022.9 |
| 20260502130146 | 78 | 90 | 1.0 | 4.0 | 0.00 | 0.00 | 0.00 | 22 | 1023.0 |
| 20260502123645 | 76 | 225 | 1.0 | 4.0 | 0.00 | 0.02 | 0.00 | 23 | 1023.2 |
| 20260502123145 | 76 | 180 | 3.0 | 8.0 | 0.00 | 0.02 | 0.00 | 23 | 1023.1 |
| 20260502122645 | 75 | 360 | 2.0 | 6.0 | 0.00 | 0.02 | 0.00 | 23 | 1023.3 |
| 20260502122145 | 76 | 90 | 3.0 | 7.0 | 0.00 | 0.02 | 0.00 | 24 | 1023.3 |
| 20260502121646 | 76 | 90 | 2.0 | 5.0 | 0.00 | 0.02 | 0.00 | 23 | 1023.5 |
| 20260502121146 | 77 | 135 | 2.0 | 4.0 | 0.00 | 0.02 | 0.00 | 23 | 1023.5 |
| 20260502120645 | 76 | 135 | 2.0 | 5.0 | 0.00 | 0.02 | 0.00 | 23 | 1023.5 |
| 20260502120146 | 76 | 225 | 2.0 | 7.0 | 0.00 | 0.00 | 0.00 | 25 | 1023.5 |
| 20260502115645 | 76 | 225 | 2.0 | 7.0 | 0.00 | 0.02 | 0.00 | 25 | 1023.5 |
| 20260502115145 | 76 | 90 | 1.0 | 4.0 | 0.00 | 0.02 | 0.00 | 23 | 1023.6 |
| 20260502114646 | 76 | 360 | 1.0 | 3.0 | 0.00 | 0.02 | 0.00 | 23 | 1023.6 |
| 20260502114145 | 76 | 135 | 2.0 | 8.0 | 0.00 | 0.02 | 0.00 | 23 | 1023.7 |
| 20260502113645 | 76 | 113 | 2.0 | 6.0 | 0.00 | 0.02 | 0.00 | 23 | 1023.8 |
| 20260502113146 | 76 | 135 | 2.0 | 5.0 | 0.00 | 0.02 | 0.00 | 25 | 1023.8 |
| 20260502112845 | 75 | 90 | 2.0 | 7.0 | 0.00 | 0.02 | 0.00 | 23 | 1023.9 |
| 20260502112345 | 75 | 135 | 2.0 | 7.0 | 0.00 | 0.02 | 0.00 | 25 | 1024.0 |
| 20260502111845 | 75 | 113 | 3.0 | 8.0 | 0.00 | 0.02 | 0.00 | 23 | 1024.1 |
| 20260502111344 | 75 | 270 | 2.0 | 5.0 | 0.00 | 0.02 | 0.00 | 25 | 1024.2 |
| 20260502110844 | 74 | 225 | 1.0 | 4.0 | 0.00 | 0.02 | 0.00 | 23 | 1024.1 |
| 20260502110345 | 75 | 45 | 2.0 | 4.0 | 0.00 | 0.02 | 0.00 | 25 | 1024.3 |
| 20260502105845 | 75 | 90 | 2.0 | 7.0 | 0.00 | 0.02 | 0.00 | 25 | 1024.3 |
| 20260502105344 | 74 | 180 | 1.0 | 4.0 | 0.00 | 0.02 | 0.00 | 25 | 1024.5 |
| 20260502104845 | 75 | 180 | 3.0 | 8.0 | 0.00 | 0.02 | 0.00 | 26 | 1024.4 |
| 20260502104345 | 75 | 90 | 2.0 | 6.0 | 0.00 | 0.02 | 0.00 | 26 | 1024.4 |
| 20260502103844 | 74 | 90 | 2.0 | 6.0 | 0.00 | 0.02 | 0.00 | 26 | 1024.6 |
| 20260502103344 | 75 | 135 | 3.0 | 8.0 | 0.00 | 0.02 | 0.00 | 25 | 1024.4 |
| 20260502102844 | 75 | 158 | 2.0 | 7.0 | 0.00 | 0.02 | 0.00 | 25 | 1024.4 |
| 20260502102344 | 74 | 135 | 2.0 | 7.0 | 0.02 | 0.02 | 0.00 | 26 | 1024.5 |
| 20260502101844 | 74 | 45 | 2.0 | 4.0 | 0.02 | 0.02 | 0.00 | 26 | 1024.6 |
| 20260502101344 | 75 | 135 | 1.0 | 4.0 | 0.02 | 0.02 | 0.00 | 25 | 1024.7 |
| 20260502100845 | 74 | 180 | 1.0 | 3.0 | 0.02 | 0.02 | 0.00 | 26 | 1024.7 |
| 20260502100344 | 74 | 45 | 1.0 | 3.0 | 0.02 | 0.02 | 0.00 | 25 | 1024.8 |
| 20260502091345 | 72 | 360 | 1.0 | 2.0 | 0.00 | 0.00 | 0.00 | 31 | 1025.4 |
| 20260502090844 | 72 | 135 | 3.0 | 7.0 | 0.00 | 0.00 | 0.00 | 30 | 1025.3 |
| 20260502090345 | 73 | 45 | 2.0 | 4.0 | 0.00 | 0.00 | 0.00 | 26 | 1025.5 |
| 20260502071344 | 67 | 90 | 1.0 | 3.0 | 0.00 | 0.06 | 0.00 | 40 | 1025.9 |
| 20260502070844 | 66 | 135 | 1.0 | 3.0 | 0.00 | 0.06 | 0.00 | 41 | 1025.9 |
| 20260502070345 | 66 | 45 | 1.0 | 2.0 | 0.00 | 0.06 | 0.00 | 41 | 1025.9 |
| 20260502065844 | 65 | 135 | 1.0 | 3.0 | 0.00 | 0.06 | 0.00 | 42 | 1025.9 |
| 20260502065344 | 64 | 135 | 1.0 | 3.0 | 0.00 | 0.06 | 0.00 | 41 | 1025.9 |
| 20260502064844 | 64 | 45 | 1.0 | 2.0 | 0.00 | 0.06 | 0.00 | 42 | 1025.9 |
| 20260502064344 | 63 | 90 | 1.0 | 3.0 | 0.00 | 0.06 | 0.00 | 47 | 1025.9 |
| 20260502063845 | 63 | 135 | 1.0 | 3.0 | 0.00 | 0.06 | 0.00 | 46 | 1026.0 |
| 20260502063344 | 63 | 45 | 1.0 | 3.0 | 0.00 | 0.06 | 0.00 | 46 | 1025.9 |
| 20260502062844 | 63 | 90 | 1.0 | 2.0 | 0.00 | 0.06 | 0.00 | 46 | 1025.9 |
| 20260502062344 | 63 | 135 | 1.0 | 3.0 | 0.00 | 0.06 | 0.00 | 44 | 1026.1 |
| 20260502061844 | 63 | 180 | 1.0 | 2.0 | 0.00 | 0.06 | 0.00 | 46 | 1026.0 |
| 20260502061344 | 61 | 180 | 1.0 | 2.0 | 0.00 | 0.06 | 0.00 | 47 | 1026.1 |
| 20260502060844 | 61 | 180 | 1.0 | 2.0 | 0.00 | 0.06 | 0.00 | 47 | 1026.0 |
| 20260502060344 | 60 | 90 | 1.0 | 2.0 | 0.00 | 0.06 | 0.00 | 47 | 1026.1 |
| 20260502055844 | 60 | 90 | 1.0 | 2.0 | 0.00 | 0.06 | 0.00 | 48 | 1026.0 |
| 20260502055344 | 60 | 90 | 1.0 | 2.0 | 0.00 | 0.06 | 0.00 | 48 | 1025.9 |
| 20260502054844 | 59 | 135 | 0.0 | 2.0 | 0.00 | 0.06 | 0.00 | 48 | 1025.9 |
| 20260502054344 | 59 | 135 | 1.0 | 2.0 | 0.00 | 0.06 | 0.00 | 47 | 1026.0 |
| 20260502053844 | 58 | 135 | 1.0 | 2.0 | 0.00 | 0.06 | 0.00 | 50 | 1025.8 |
| 20260502053344 | 58 | 158 | 0.0 | 2.0 | 0.00 | 0.06 | 0.00 | 50 | 1025.9 |
| 20260502052844 | 58 | 135 | 1.0 | 2.0 | 0.00 | 0.06 | 0.00 | 50 | 1026.0 |
| 20260502052344 | 59 | 180 | 0.0 | 2.0 | 0.00 | 0.06 | 0.00 | 50 | 1025.9 |
| 20260502051844 | 58 | 225 | 0.0 | 0.0 | 0.00 | 0.06 | 0.00 | 54 | 1025.8 |
| 20260502051344 | 57 | 360 | 0.0 | 0.0 | 0.00 | 0.06 | 0.00 | 56 | 1026.0 |
| 20260502050844 | 55 | 360 | 0.0 | 0.0 | 0.00 | 0.06 | 0.00 | 56 | 1025.8 |
| 20260502050344 | 56 | 248 | 0.0 | 0.0 | 0.00 | 0.06 | 0.00 | 60 | 1025.9 |
| 20260502045844 | 55 | 225 | 0.0 | 0.0 | 0.00 | 0.06 | 0.00 | 61 | 1025.8 |
| 20260502045344 | 54 | 225 | 0.0 | 0.0 | 0.00 | 0.06 | 0.00 | 66 | 1025.7 |
| 20260502044844 | 52 | 225 | 0.0 | 0.0 | 0.00 | 0.06 | 0.00 | 67 | 1025.9 |
| 20260502044344 | 50 | 225 | 0.0 | 0.0 | 0.00 | 0.06 | 0.00 | 69 | 1025.8 |
| 20260502043844 | 49 | 225 | 0.0 | 0.0 | 0.00 | 0.06 | 0.00 | 70 | 1025.7 |
| 20260502043344 | 49 | 225 | 0.0 | 0.0 | 0.00 | 0.06 | 0.00 | 71 | 1025.7 |
| 20260502042844 | 47 | 225 | 0.0 | 0.0 | 0.00 | 0.06 | 0.00 | 72 | 1025.7 |
| 20260502042343 | 46 | 225 | 0.0 | 0.0 | 0.00 | 0.06 | 0.00 | 73 | 1025.7 |
| 20260502041844 | 45 | 158 | 0.0 | 0.0 | 0.00 | 0.06 | 0.00 | 80 | 1025.7 |
| 20260502041344 | 44 | 225 | 0.0 | 0.0 | 0.00 | 0.06 | 0.00 | 80 | 1025.5 |
| 20260502040843 | 43 | 225 | 0.0 | 1.0 | 0.00 | 0.06 | 0.00 | 80 | 1025.6 |
| 20260502040344 | 43 | 135 | 1.0 | 2.0 | 0.00 | 0.06 | 0.00 | 79 | 1025.6 |
| 20260502035844 | 43 | 158 | 0.0 | 0.0 | 0.00 | 0.06 | 0.00 | 77 | 1025.5 |
| 20260502035343 | 43 | 158 | 0.0 | 0.0 | 0.00 | 0.06 | 0.00 | 77 | 1025.5 |
| 20260502034844 | 43 | 360 | 0.0 | 2.0 | 0.00 | 0.06 | 0.00 | 76 | 1025.4 |
| 20260502034343 | 44 | 135 | 0.0 | 0.0 | 0.00 | 0.06 | 0.00 | 76 | 1025.5 |
| 20260502033844 | 44 | 360 | 0.0 | 1.0 | 0.00 | 0.06 | 0.00 | 75 | 1025.6 |
| 20260502033344 | 44 | 225 | 0.0 | 0.0 | 0.00 | 0.06 | 0.00 | 75 | 1025.4 |
| 20260502032844 | 45 | 135 | 0.0 | 0.0 | 0.00 | 0.06 | 0.00 | 75 | 1025.5 |
| 20260502032344 | 45 | 225 | 1.0 | 2.0 | 0.00 | 0.06 | 0.00 | 76 | 1025.3 |
| 20260502031843 | 45 | 225 | 1.0 | 2.0 | 0.00 | 0.06 | 0.00 | 76 | 1025.4 |
| 20260502031344 | 45 | 225 | 1.0 | 2.0 | 0.00 | 0.06 | 0.00 | 77 | 1025.5 |
| 20260502030843 | 44 | 225 | 1.0 | 2.0 | 0.00 | 0.06 | 0.00 | 78 | 1025.4 |
| 20260502030343 | 44 | 225 | 1.0 | 2.0 | 0.00 | 0.06 | 0.00 | 77 | 1025.6 |
| 20260502025844 | 43 | 180 | 0.0 | 0.0 | 0.00 | 0.06 | 0.00 | 75 | 1025.6 |
| 20260502025343 | 44 | 360 | 0.0 | 0.0 | 0.00 | 0.06 | 0.00 | 75 | 1025.6 |
| 20260502024843 | 44 | 225 | 0.0 | 0.0 | 0.00 | 0.06 | 0.00 | 75 | 1025.8 |
| 20260502024344 | 43 | 225 | 0.0 | 0.0 | 0.00 | 0.06 | 0.00 | 74 | 1025.8 |
| 20260502023844 | 44 | 180 | 0.0 | 0.0 | 0.00 | 0.06 | 0.00 | 73 | 1025.8 |
| 20260502023344 | 44 | 360 | 0.0 | 0.0 | 0.00 | 0.06 | 0.00 | 72 | 1025.8 |
| 20260502022843 | 44 | 360 | 0.0 | 0.0 | 0.00 | 0.06 | 0.00 | 72 | 1025.8 |
| 20260502022343 | 45 | 270 | 0.0 | 1.0 | 0.00 | 0.06 | 0.00 | 71 | 1025.8 |
| 20260502021844 | 45 | 225 | 0.0 | 0.0 | 0.00 | 0.06 | 0.00 | 71 | 1025.8 |